www.pogodaiklimat.ru

Погода и климат >> Архив погоды >> Эквадор >> Milagro


ПОГОДА в Milagro

  • Прогноз погоды в Milagro
  • Монитор погоды в Milagro
  • Климат города

АРХИВ ПОГОДЫ в Milagro

Время (UTC), дата Ветер
(напр.,м/с)
 
Видим.   Явления Облачность Т
(С)
Тd
(С)
f
(%)
Тe
(С)
Тes
(С)
Комфортность P
(гПа)
Po
(гПа)
Тmin
(С)
Tmax
(С)
R
(мм)
R24
(мм)
S
(см)
21 18.04 СЗ 8 20 км мгла {туман} 8/4 600 м
[Cu med, cong Ac und Cs]
+31.1 +25.4 72 +45 +46 опасность
перегрева
1006.1 1006.1 +32.5
00 19.04 З 8 5000 м мгла {туман} 9/5 300 м
[Sc diur, vesp Ac und]
+28.8 +25.9 84 +43 +43 опасность
перегрева
1008.1 1008.1 +32.5
12 19.04 штиль 0 4000 м в посл. час дождь {морось} 10/5 300 м
[Cb cap As trans]
+24.4 +24.0 98 +34 +34 очень
душно
1010.7 1010.7 +24.2 +32.5 14
15 19.04 штиль 0 3000 м слабая морось {гроза, дождь} 10/5 300 м
[St As trans]
+24.6 +23.8 95 +33 +37 очень
душно
1012.9 1012.9
18 19.04 С 8 10 км в посл. час морось {гроза} 10/4 600 м
[Sc diur, vesp As trans]
+26.6 +24.2 87 +37 +38 очень
душно
1011.3 1011.3 26
21 19.04 З 8 5000 м слабая морось 10/5 300 м
[Cb calv As op]
+26.0 +23.8 88 +36 +36 очень
душно
1009.6 1009.6 +28.0
00 20.04 ЮВ 2 3000 м слабая морось {дождь} 10/5 300 м
[Frnb As op]
+23.6 +23.2 98 +32 +32 очень
душно
1011.8 1011.8 +28.0 25
12 20.04 штиль 0 5000 м в посл. час морось 10/5 300 м
[St As trans]
+23.2 +22.9 98 +32 +32 очень
душно
1011.8 1011.8 +23.1 +28.0 58
18 20.04 З 4 25 км мгла {туман, морось} 8/6 600 м
[Cu hum Ac und]
+29.4 +24.7 76 +42 +45 опасность
перегрева
1009.6 1009.6 1
21 20.04 З 4 25 км мгла {туман} 5/4 600 м
[Cu med, cong Ac und Ci sp]
+30.4 +24.2 70 +42 +45 опасность
перегрева
1006.8 1006.8 +30.6
00 21.04 штиль 0 5000 м мгла {туман} 9/8 300 м
[Cu med, cong Ac und]
+28.0 +25.3 85 +41 +41 опасность
перегрева
1008.8 1008.8 +30.9
12 21.04 штиль 0 5000 м мгла {туман} 9/6 300 м
[Sc Ac und]
+24.9 +23.4 91 +33 +34 очень
душно
1010.3 1010.3 +24.3 +30.9 1
18 21.04 З 6 20 км мгла {туман} 9/6 600 м
[Cu med, cong Cs]
+30.6 +25.5 74 +45 +47 опасность
перегрева
1008.1 1008.1
21 21.04 штиль 0 15 км осадки на расстоянии {туман} 9/4 600 м
[Cu med, cong Ac und Cs]
+31.4 +26.4 75 +48 +51 опасность
перегрева
1005.7 1005.7 +31.7
00 22.04 штиль 0 5000 м зарница {туман} 4/4 600 м
[Sc diur, vesp Ci sp]
+29.0 +26.4 86 +44 +44 опасность
перегрева
1007.1 1007.1 +31.7
12 22.04 штиль 0 3000 м осадки на расстоянии 10/3 600 м
[Sc As trans]
+24.9 +24.1 95 +34 +34 очень
душно
1008.9 1008.9 +24.8 +31.7
18 22.04 СЗ 4 15 км мгла {туман} 8/8 600 м
[Sc diur, vesp]
+30.8 +25.6 74 +45 +48 опасность
перегрева
1007.3 1007.3
21 22.04 ЮЗ 2 15 км мгла {туман} 10/8 600 м
[Sc diur, vesp As trans]
+31.4 +25.5 71 +46 +46 опасность
перегрева
1005.0 1005.0 +31.9
12 23.04 Ю 2 6000 м мгла {туман} 10/4 600 м
[Sc As trans]
+25.0 +22.8 88 +33 +33 очень
душно
1008.8 1008.8 +24.8 +32.0
18 23.04 СЗ 2 15 км мгла {туман} 9/6 300 м
[Sc diur, vesp Ac As]
+30.6 +25.5 74 +45 +49 опасность
перегрева
1007.8 1007.8
21 23.04 ЮЗ 2 18 км мгла {туман} 9/8 600 м
[Sc diur, vesp Ac lent]
+31.2 +25.6 72 +46 +47 опасность
перегрева
1005.0 1005.0 +32.0
00 24.04 штиль 0 2000 м мгла {туман} 9/4 600 м
[Cb calv As trans]
+28.8 +26.0 85 +43 +43 опасность
перегрева
1005.8 1006.8 +32.0
12 24.04 штиль 0 5000 м осадки на расстоянии 10/4 300 м
[St As trans]
+25.6 +24.0 91 +35 +35 очень
душно
1008.4 1008.4 +25.2 +32.0
15 24.04 штиль 0 15 км мгла {туман} 9/9 600 м
[Sc]
+28.5 +24.3 78 +40 +42 очень
душно
1009.7 1009.7
18 24.04 СВ 8 20 км мгла {туман} 10/5 600 м
[Cu med, cong Ac und]
+29.2 +24.9 78 +42 +43 опасность
перегрева
1008.3 1008.3
21 24.04 В 4 15 км мгла {туман} 10/6 300 м
[Sc diur, vesp Ac trans]
+28.2 +24.7 81 +40 +41 очень
душно
1006.1 1006.1 +30.1
00 25.04 штиль 0 5000 м 10/5 600 м
[Sc diur, vesp Ac trans]
+26.6 +24.2 87 +37 +37 очень
душно
1007.8 1007.8 +30.1
15 25.04 ЮЗ 2 20 км мгла {туман, морось} 5/4 600 м
[Sc Ac und Cs]
+26.4 +24.1 87 +37 +44 очень
душно
1010.8 1010.8
18 25.04 СЗ 10 25 км мгла {туман} 5/3 600 м
[Cu med, cong Ac und Ci sp]
+30.0 +24.8 74 +43 +43 опасность
перегрева
1008.9 1008.9

 

Местоположение метеостанции Milagro (Эквадор): широта -2.12 долгота -79.60 высота над уровнем моря 13 м.

В архиве по умолчанию представлена погода в Milagro за последнюю неделю. Архивные данные за месяц целиком и за предыдущие месяцы, начиная с января 2011 года, Вы можете получить, выбрав интересующий диапазон дат из раскрывающегося списка и нажав кнопку "Ввод!".

Внимание! Время в таблицах - всемирное. Для получения местного времени необходимо прибавить поправку, которая в Milagro равна -5 ч.

Смотрите также архив погоды в соседних городах и на ближайших метеорологических станциях:

Погода в Guayaquil (Эквадор) (31 км)
Погода в Guayaquil Aeropuerto (Эквадор) (31 км)
Погода в Canar (Эквадор) (88 км)
Погода в Cuenca (Эквадор) (109 км)
Погода в Pichilingue (Эквадор) (115 км)
Погода в Riobamba (Эквадор) (117 км)
Погода в Corazon (Эквадор) (124 км)
Погода в Machala (Эквадор) (132 км)
Погода в Querochaca (Эквадор) (139 км)
Погода в Santa Rosa (Эквадор) (152 км)

Пояснения к столбцам:

Ветер - указаны скорость ветра в м/с - средняя за 10 мин, порывы в срок и между сроками (в фигурных скобках) и направление, откуда дует ветер: С - северный, СВ - северо-восточный, В - восточный, ЮВ - юго-восточный, Ю - южный, ЮЗ - юго-западный, З - западный, СЗ - северо-западный.
Видимость - горизонтальная дальность видимости в метрах или километрах. При видимости от 1 до 10 км при отсутствии осадков обычно наблюдается дымка, при ухудшении видимости до 1 км и менее - туман. В сухую погоду видимость может ухудшаться дымом, пылью или мглою.
Явления - указаны атмосферные явления, наблюдавшиеся в срок или в последний час перед сроком; фигурными скобками обозначены явления, наблюдавшиеся между сроками (за 1-3 часа до срока); квадратными скобками обозначены град или гололедные отложения с указанием их диаметра в мм.
Облачность - указаны через наклонную черту общая и нижняя облачность в баллах и высота нижней границы облаков в метрах; квадратными скобками обозначены формы облаков: Ci - перистые, Cs - перисто-слоистые, Cc - перисто-кучевые, Ac - высококучевые, As - высокослоистые, Sc - слоисто-кучевые, Ns - слоисто-дождевые, Cu - кучевые, Cb - кучево-дождевые. Подробнее классификацию облаков см. в Атласе облаков (PDF).
T - Температура воздуха - температура, измеренная на высоте 2 м над землей.
Td - Температура точки росы - температура, при понижении до которой содержащийся в воздухе водяной пар достигнет насыщения.
f - Относительная влажность воздуха - влажноcть воздуха, измеренная на высоте 2 м над землей.
Te - Эффективная температура - температура, которую ощущает одетый по сезону человек в тени. Характеристика душности погоды. При расчете учитывается влияние влажности воздуха и скорости ветра на теплоощущения человека.
Tes - Эффективная температура на солнце - температура, которую ощущает человек, с поправкой на солнечный нагрев. Характеристика знойности погоды. Зависит от высоты солнца над горизонтом, облачности и скорости ветра. Ночью, в пасмурную погоду, а также при ветре 12 м/с и более поправка равна нулю.
P - Атмосферное давление - приведенное к уровню моря атмосферное давление.
Po - Атмосферное давление - измеренное на уровне метеостанции атмосферное давление.
Tmin - Минимальная температура - минимум температуры воздуха на высоте 2 м над землей.
Tmax - Максимальная температура - максимум температуры воздуха на высоте 2 м над землей.
R - Количество осадков - Количество выпавших осадков за период времени, мм. При наведении курсора мыши на число - период времени, за который выпало указанное количество осадков.
R24 - Количество осадков - Количество выпавших осадков за 24 часа, мм.
S - Снежный покров - Высота снежного покрова, см. При наведении курсора мыши на число - состояние снежного покрова и степень покрытия местности в баллах.